Zurück zum Katalog

CZ-6A DEB

AktivPO
NORAD 64648·DEBRIS·🇨🇳 China

Gestartet Aug 6, 2024 von Taiyuan Satellite Launch Center

Loading…

Nächste Überflüge (nächste 24 Stunden)

TLE

AktuellSource: Space-Track

Epoche: Sep 14, 2026, 10:45 UTC

1 64648U 24140AEN 26257.44825425  .00001639  00000-0  69559-3 0  9991
2 64648  88.9874 263.4197 0041032 253.2994 106.3693 14.24488843100218

Verfolge CZ-6A DEB in Echtzeit mit AllMySat

Download on the App Store